Content
SEND FEEDBACK

Daily
Averages
Monthly
Summary
United States of America

SANTA RITA, MONTANA


Home > North America > United States > Montana
Elevation: 3945 feet     Latitude: 48 56N     Longitude: 112 18W

WEATHER
 
SELECT A DAY
Number of Records: 141,900;   Date Range: 1/1/95 - 9/30/14
 
SHARE

PRINT THIS DATA

[ ← Previous Day ]
WEATHER ALMANAC - JANUARY 23, 2013
[ Next Day → ]
[ °C ]   °F
Weather ElementAverageHighLow
Temperature13.2 °F16.3 °F (2:00 pm)9.7 °F (6:00 am)
Dewpoint10.2 °F12 °F (5:00 pm)7.3 °F (6:00 am)
Humidity86.8 %94 % (1:00 am)76 % (5:00 pm)
Barometer30.15 in30.30 in (3:00 am)29.91 in (11:00 pm)
Wind Speed11.9 mph24.2 mph (3:00 pm)
Wind Gust24.2 mph (5:00 pm)
Weather ElementAverage
Wind DirectionSSE (161.1 °)

Weather ElementTotal
Precipitation---
Heating Degree Days52 (Base 65)
Averaged from 27 records on January 23, 2013
WEATHER CONDITIONS BREAKOUT
WIND DIRECTION BREAKOUT
WEATHER BY HOUR - JANUARY 23, 2013
[ °C ]   °F
Local TimeTemperatureDewpointHumidityBarometerVisibilityWind DirectionWind SpeedGust SpeedPrecipitationEventsConditions
1:00 AM12.2 °F10.8 °F94 %30.28 inNorth (360°)4.6 mph
2:00 AM11.7 °F9.7 °F92 %30.27 inNNE (30°)4.6 mph
3:00 AM10.2 °F8.1 °F91 %30.30 inENE (70°)3.5 mph
4:00 AM9.9 °F7.5 °F90 %30.29 inEast (80°)3.5 mph
5:00 AM10.0 °F8.0 °F85 %30.30 inEast (100°)2.3 mph
5:00 AM9.9 °F7.5 °F90 %30.30 inEast (100°)2.3 mph
6:00 AM9.7 °F7.3 °F90 %30.30 inESE (110°)4.6 mph
7:00 AM9.7 °F7.5 °F91 %30.27 inSE (140°)5.8 mph
8:00 AM9.9 °F7.7 °F91 %30.27 inSSE (150°)5.8 mph
9:00 AM11.3 °F9.1 °F91 %30.27 inSE (130°)5.8 mph
10:00 AM13.3 °F10.8 °F90 %30.23 inSouth (170°)13.8 mph
11:00 AM13.0 °F11.0 °F85 %30.24 inSouth (180°)17.3 mph
11:00 AM13.3 °F10.6 °F89 %30.24 inSouth (180°)17.3 mph
12:00 PM14.2 °F10.8 °F86 %30.19 inSouth (180°)20.7 mph
1:00 PM16.0 °F11.5 °F82 %30.16 inSouth (180°)23.0 mph
2:00 PM16.3 °F11.3 °F81 %30.12 inSouth (170°)21.9 mph
3:00 PM16.0 °F11.3 °F82 %30.10 inSouth (180°)24.2 mph
4:00 PM15.6 °F11.3 °F83 %30.10 inSouth (180°)16.1 mph
5:00 PM16.0 °F12.0 °F76 %30.06 inSouth (180°)18.4 mph
5:00 PM15.8 °F11.8 °F84 %30.06 inSouth (180°)18.4 mph24.2 mph
6:00 PM15.3 °F11.7 °F86 %30.02 inSouth (180°)18.4 mph
7:00 PM14.7 °F11.5 °F87 %30.00 inSouth (190°)13.8 mph23.0 mph
8:00 PM14.5 °F11.1 °F86 %29.97 inSouth (190°)17.3 mph
9:00 PM14.5 °F11.3 °F87 %29.97 inSouth (190°)11.5 mph
10:00 PM14.5 °F11.3 °F87 %29.92 inSouth (190°)12.7 mph
11:00 PM15.0 °F12.0 °F80 %29.91 inSouth (180°)6.9 mph
11:00 PM14.7 °F11.7 °F88 %29.91 inSouth (180°)6.9 mph
Hourly data recorded from CWRY, located miles away from Santa Rita, Montana







STORIES FROM OUR PARTNERS